Location: Aiyede
(8.4833°N, 4.4500°E)
Time: 01:42:35
(UTC+00:00)

N. Korean satellite - Pass Details

Date: 28 November 2020
Orbit: 452 x 502 km, 97.2° (Epoch: 22 January)

Event Time Altitude Azimuth Distance (km) Brightness Sun altitude
Rises 04:04:43 0° 40° (NE) 2,569 10.5 -22.9°
Reaches altitude 10° 04:07:35 10° 66° (ENE) 1,695 9.9 -22.3°
Maximum altitude 04:09:36 14° 100° (E) 1,448 10.0 -21.8°
Drops below altitude 10° 04:11:39 10° 134° (SE) 1,703 10.3 -21.3°
Sets 04:14:31 0° 159° (SSE) 2,590 10.9 -20.6°
